Wetterdaten: aktuell Montag, 31.08.2026 05:17
Datum Zeit Temp. A. Feuchte A. Luftdruck Regen Wind Richtung Richtung Sonnenschein Regendauer Taupunkt Windchill
31.08.2026 05:17 17,0 °C 88 % 1013,2 hPa 0,0 mm 0,0 km/h (0 Bft) NW 320 ° 0 min 0 min 15,0 °C 17,0 °C
31.08.2026 05:12 17,0 °C 88 % 1013,2 hPa 0,0 mm 0,0 km/h (0 Bft) W-NW 300 ° 0 min 0 min 15,0 °C 17,0 °C
31.08.2026 05:07 16,9 °C 88 % 1013,2 hPa 0,0 mm 0,0 km/h (0 Bft) NW 320 ° 0 min 0 min 14,9 °C 16,9 °C
31.08.2026 05:02 16,9 °C 88 % 1013,2 hPa 0,0 mm 0,0 km/h (0 Bft) NW 315 ° 0 min 0 min 14,9 °C 16,9 °C
31.08.2026 04:57 17,0 °C 88 % 1013,2 hPa 0,0 mm 0,0 km/h (0 Bft) NW 320 ° 0 min 0 min 15,0 °C 17,0 °C
31.08.2026 04:52 16,9 °C 88 % 1013,2 hPa 0,0 mm 0,0 km/h (0 Bft) N 10 ° 0 min 0 min 14,9 °C 16,9 °C
31.08.2026 04:47 16,9 °C 89 % 1013,2 hPa 0,0 mm 0,0 km/h (0 Bft) N 10 ° 0 min 0 min 15,1 °C 16,9 °C
31.08.2026 04:42 16,8 °C 89 % 1013,2 hPa 0,0 mm 0,0 km/h (0 Bft) N 10 ° 0 min 0 min 15,0 °C 16,8 °C
31.08.2026 04:37 16,8 °C 89 % 1013,2 hPa 0,0 mm 0,0 km/h (0 Bft) NW 325 ° 0 min 0 min 15,0 °C 16,8 °C
31.08.2026 04:32 16,8 °C 89 % 1013,2 hPa 0,0 mm 0,0 km/h (0 Bft) NW 305 ° 0 min 0 min 15,0 °C 16,8 °C
31.08.2026 04:27 16,9 °C 89 % 1013,2 hPa 0,0 mm 0,0 km/h (0 Bft) NW 315 ° 0 min 0 min 15,1 °C 16,9 °C
31.08.2026 04:22 17,0 °C 88 % 1013,2 hPa 0,0 mm 0,0 km/h (0 Bft) N-NO 25 ° 0 min 0 min 15,0 °C 17,0 °C
31.08.2026 04:17 17,2 °C 87 % 1014,2 hPa 0,0 mm 0,0 km/h (0 Bft) W-NW 290 ° 0 min 0 min 15,0 °C 17,2 °C
31.08.2026 04:12 17,3 °C 87 % 1014,2 hPa 0,0 mm 0,0 km/h (0 Bft) W-NW 285 ° 0 min 0 min 15,1 °C 17,3 °C
31.08.2026 04:07 17,3 °C 87 % 1014,2 hPa 0,0 mm 0,0 km/h (0 Bft) N 10 ° 0 min 0 min 15,1 °C 17,3 °C
31.08.2026 04:02 17,4 °C 87 % 1013,1 hPa 0,0 mm 0,0 km/h (0 Bft) W-NW 290 ° 0 min 0 min 15,2 °C 17,4 °C
31.08.2026 03:57 17,4 °C 87 % 1013,1 hPa 0,0 mm 0,0 km/h (0 Bft) O-NO 75 ° 0 min 0 min 15,2 °C 17,4 °C
31.08.2026 03:52 17,6 °C 86 % 1013,1 hPa 0,0 mm 0,0 km/h (0 Bft) SW 235 ° 0 min 0 min 15,2 °C 17,6 °C
31.08.2026 03:47 17,6 °C 85 % 1013,1 hPa 0,0 mm 0,0 km/h (0 Bft) S 190 ° 0 min 0 min 15,0 °C 17,6 °C
31.08.2026 03:42 17,6 °C 86 % 1013,1 hPa 0,0 mm 0,0 km/h (0 Bft) W-NW 295 ° 0 min 0 min 15,2 °C 17,6 °C
31.08.2026 03:37 17,5 °C 86 % 1013,1 hPa 0,0 mm 0,0 km/h (0 Bft) S-SO 165 ° 0 min 0 min 15,1 °C 17,5 °C
31.08.2026 03:32 17,6 °C 86 % 1013,1 hPa 0,0 mm 0,0 km/h (0 Bft) S-SW 195 ° 0 min 0 min 15,2 °C 17,6 °C
31.08.2026 03:27 17,5 °C 86 % 1013,1 hPa 0,0 mm 0,0 km/h (0 Bft) W 265 ° 0 min 0 min 15,1 °C 17,5 °C
31.08.2026 03:22 17,4 °C 87 % 1013,1 hPa 0,0 mm 0,0 km/h (0 Bft) W 275 ° 0 min 0 min 15,2 °C 17,4 °C
31.08.2026 03:17 17,3 °C 87 % 1013,1 hPa 0,0 mm 0,0 km/h (0 Bft) W 275 ° 0 min 0 min 15,1 °C 17,3 °C
31.08.2026 03:12 17,1 °C 88 % 1013,2 hPa 0,0 mm 0,0 km/h (0 Bft) NW 325 ° 0 min 0 min 15,1 °C 17,1 °C
31.08.2026 03:07 17,0 °C 88 % 1013,2 hPa 0,0 mm 0,0 km/h (0 Bft) NW 315 ° 0 min 0 min 15,0 °C 17,0 °C
31.08.2026 03:02 17,0 °C 88 % 1013,2 hPa 0,0 mm 0,0 km/h (0 Bft) NW 315 ° 0 min 0 min 15,0 °C 17,0 °C
31.08.2026 02:57 17,0 °C 88 % 1013,2 hPa 0,0 mm 0,0 km/h (0 Bft) NW 325 ° 0 min 0 min 15,0 °C 17,0 °C
31.08.2026 02:52 17,0 °C 88 % 1013,2 hPa 0,0 mm 0,0 km/h (0 Bft) O-NO 70 ° 0 min 0 min 15,0 °C 17,0 °C
31.08.2026 02:47 17,1 °C 88 % 1013,2 hPa 0,0 mm 0,0 km/h (0 Bft) W 265 ° 0 min 0 min 15,1 °C 17,1 °C
31.08.2026 02:42 17,0 °C 88 % 1013,2 hPa 0,0 mm 0,0 km/h (0 Bft) N-NW 330 ° 0 min 0 min 15,0 °C 17,0 °C
31.08.2026 02:37 17,0 °C 88 % 1013,2 hPa 0,0 mm 0,0 km/h (0 Bft) NW 325 ° 0 min 0 min 15,0 °C 17,0 °C
31.08.2026 02:32 17,0 °C 87 % 1013,2 hPa 0,0 mm 0,0 km/h (0 Bft) W-NW 300 ° 0 min 0 min 14,8 °C 17,0 °C
31.08.2026 02:27 17,1 °C 87 % 1013,2 hPa 0,0 mm 0,0 km/h (0 Bft) NW 315 ° 0 min 0 min 14,9 °C 17,1 °C
31.08.2026 02:22 17,1 °C 87 % 1013,2 hPa 0,0 mm 0,0 km/h (0 Bft) N-NW 340 ° 0 min 0 min 14,9 °C 17,1 °C
31.08.2026 02:17 17,2 °C 87 % 1013,1 hPa 0,0 mm 0,0 km/h (0 Bft) W-NW 290 ° 0 min 0 min 15,0 °C 17,2 °C
31.08.2026 02:12 17,1 °C 87 % 1013,2 hPa 0,0 mm 0,0 km/h (0 Bft) W 280 ° 0 min 0 min 14,9 °C 17,1 °C
31.08.2026 02:07 17,0 °C 88 % 1013,2 hPa 0,0 mm 0,0 km/h (0 Bft) NW 320 ° 0 min 0 min 15,0 °C 17,0 °C
31.08.2026 02:02 17,0 °C 87 % 1013,2 hPa 0,0 mm 0,0 km/h (0 Bft) NW 310 ° 0 min 0 min 14,8 °C 17,0 °C
31.08.2026 01:57 17,1 °C 87 % 1013,2 hPa 0,0 mm 0,0 km/h (0 Bft) S-SW 205 ° 0 min 0 min 14,9 °C 17,1 °C
31.08.2026 01:52 17,2 °C 87 % 1013,1 hPa 0,0 mm 0,0 km/h (0 Bft) N-NW 330 ° 0 min 0 min 15,0 °C 17,2 °C
31.08.2026 01:47 17,1 °C 87 % 1014,2 hPa 0,0 mm 0,0 km/h (0 Bft) W-NW 290 ° 0 min 0 min 14,9 °C 17,1 °C
31.08.2026 01:42 17,3 °C 87 % 1014,2 hPa 0,0 mm 0,0 km/h (0 Bft) NW 325 ° 0 min 0 min 15,1 °C 17,3 °C
31.08.2026 01:37 17,3 °C 87 % 1014,2 hPa 0,0 mm 0,0 km/h (0 Bft) W-NW 285 ° 0 min 0 min 15,1 °C 17,3 °C
31.08.2026 01:32 17,2 °C 87 % 1014,2 hPa 0,0 mm 0,0 km/h (0 Bft) N-NW 345 ° 0 min 0 min 15,0 °C 17,2 °C
31.08.2026 01:27 17,1 °C 88 % 1014,2 hPa 0,0 mm 0,0 km/h (0 Bft) N-NW 340 ° 0 min 0 min 15,1 °C 17,1 °C
31.08.2026 01:22 17,3 °C 87 % 1014,2 hPa 0,0 mm 0,0 km/h (0 Bft) W 280 ° 0 min 0 min 15,1 °C 17,3 °C
31.08.2026 01:17 17,3 °C 87 % 1014,2 hPa 0,0 mm 0,0 km/h (0 Bft) NW 305 ° 0 min 0 min 15,1 °C 17,3 °C
_ Min-Zeit 06:52 16:32 16:47 - 06:02 - - - - 06:52 06:52
Minimum _ 13,6 °C 51 % 1011,3 hPa - 0,0 km/h (0 Bft) - - - - 12,3 °C 13,6 °C
_ Max-Zeit 15:47 06:57 06:52 06:02 15:17 - - 14:12 06:02 13:57 15:47
Maximum _ 28,2 °C 94 % 1017,0 hPa 0,0 mm 25,7 km/h
W (4 Bft)
- - 9 min 0 min 18,3 °C 28,2 °C
Durchschnitt _ 20,1 °C 77 % 1014,0 hPa #0,0 mm 3,9 km/h (1 Bft) NW - #0 min. #0 min. 15,6 °C 20,1 °C